EW1440 Weather Reports


Display with metric or nautical units.
time (UTC)temp
F
wind
direction
speed
MPH
gust
MPH
rain 1hr
in
rain 24hr
in
rain mn
in
humidity
%
barometer
mb
20260504230534 80 143 8.0 15.0 0.00 0.00 0.00 63 1010.0
20260504230047 80 118 6.0 14.0 0.00 0.00 0.00 63 1010.1
20260504225534 80 203 8.0 19.0 0.00 0.00 0.00 63 1010.2
20260504225033 80 187 7.0 19.0 0.00 0.00 0.00 61 1010.2
20260504224546 80 172 9.0 19.0 0.00 0.00 0.00 62 1010.3
20260504224037 80 166 4.0 15.0 0.00 0.00 0.00 65 1010.5
20260504223533 80 179 8.0 16.0 0.00 0.00 0.00 61 1010.6
20260504223051 80 164 7.0 16.0 0.00 0.00 0.00 63 1010.5
20260504222534 80 170 5.0 12.0 0.00 0.00 0.00 65 1010.8
20260504222037 79 180 6.0 16.0 0.00 0.00 0.00 64 1010.8
20260504221627 79 173 6.0 17.0 0.00 0.00 0.00 63 1010.7
20260504221048 80 192 9.0 19.0 0.00 0.00 0.00 63 1010.8
20260504220534 80 128 8.0 19.0 0.00 0.00 0.00 63 1010.7
20260504220047 80 170 9.0 18.0 0.00 0.00 0.00 63 1010.8
20260504215536 80 160 10.0 19.0 0.00 0.00 0.00 62 1010.8
20260504215036 81 180 8.0 19.0 0.00 0.00 0.00 62 1010.8
20260504214546 80 169 6.0 18.0 0.00 0.00 0.00 64 1010.8
20260504214033 80 193 7.0 18.0 0.00 0.00 0.00 61 1010.9
20260504213533 80 147 9.0 18.0 0.00 0.00 0.00 63 1011.0
20260504213049 79 205 9.0 17.0 0.00 0.00 0.00 62 1011.1
20260504212533 79 181 8.0 16.0 0.00 0.00 0.00 64 1011.3
20260504212037 80 218 7.0 13.0 0.00 0.00 0.00 65 1011.3
20260504211550 80 212 7.0 13.0 0.00 0.00 0.00 65 1011.4
20260504211034 79 173 6.0 17.0 0.00 0.00 0.00 64 1011.5
20260504210534 78 169 9.0 18.0 0.00 0.00 0.00 67 1011.8
20260504210051 79 139 8.0 18.0 0.00 0.00 0.00 65 1011.9
20260504205533 80 161 7.0 17.0 0.00 0.00 0.00 64 1011.8
20260504205034 79 183 5.0 17.0 0.00 0.00 0.00 66 1011.9
20260504204547 78 187 8.0 17.0 0.00 0.00 0.00 66 1012.1
20260504204033 78 153 6.0 13.0 0.00 0.00 0.00 68 1012.2
20260504203533 78 187 5.0 16.0 0.00 0.00 0.00 67 1012.3
20260504203046 78 184 6.0 16.0 0.00 0.00 0.00 67 1012.2
20260504202533 77 212 8.0 16.0 0.00 0.00 0.00 67 1012.4
20260504202034 77 162 7.0 14.0 0.00 0.00 0.00 67 1012.5
20260504201553 78 168 6.0 15.0 0.00 0.00 0.00 67 1012.5
20260504201035 77 165 8.0 15.0 0.00 0.00 0.00 66 1012.6
20260504200534 77 148 7.0 14.0 0.00 0.00 0.00 67 1012.6
20260504200049 77 191 6.0 18.0 0.00 0.00 0.00 68 1012.7
20260504195534 77 228 6.0 18.0 0.00 0.00 0.00 66 1012.6
20260504195033 78 164 9.0 18.0 0.00 0.00 0.00 66 1012.7
20260504194553 77 209 9.0 16.0 0.00 0.00 0.00 66 1012.9
20260504194034 78 208 7.0 16.0 0.00 0.00 0.00 67 1012.9
20260504193536 77 150 8.0 16.0 0.00 0.00 0.00 66 1012.9
20260504193049 77 166 5.0 14.0 0.00 0.00 0.00 68 1013.2
20260504192533 77 176 6.0 14.0 0.00 0.00 0.00 69 1013.2
20260504192034 77 201 6.0 14.0 0.00 0.00 0.00 67 1013.1
20260504191609 77 226 7.0 14.0 0.00 0.00 0.00 68 1013.2
20260504191033 77 172 5.0 12.0 0.00 0.00 0.00 68 1013.4
20260504190533 77 199 5.0 16.0 0.00 0.00 0.00 70 1013.2
20260504190048 76 220 6.0 16.0 0.00 0.00 0.00 70 1013.4
20260504185533 76 162 6.0 14.0 0.00 0.00 0.00 69 1013.3
20260504185035 76 176 8.0 14.0 0.00 0.00 0.00 69 1013.4
20260504184556 77 201 6.0 13.0 0.00 0.00 0.00 68 1013.3
20260504184034 77 193 6.0 14.0 0.00 0.00 0.00 69 1013.4
20260504183534 76 182 5.0 15.0 0.00 0.00 0.00 68 1013.5
20260504183047 76 180 10.0 15.0 0.00 0.00 0.00 68 1013.5
20260504182533 77 197 8.0 17.0 0.00 0.00 0.00 68 1013.8
20260504182033 77 193 8.0 17.0 0.00 0.00 0.00 67 1013.8
20260504181547 78 171 6.0 17.0 0.00 0.00 0.00 67 1013.7
20260504181033 79 169 7.0 16.0 0.00 0.00 0.00 66 1013.7
20260504180534 78 201 9.0 16.0 0.00 0.00 0.00 67 1013.8
20260504180047 78 236 7.0 18.0 0.00 0.00 0.00 67 1013.9
20260504175533 77 154 10.0 19.0 0.00 0.00 0.00 69 1013.9
20260504175033 77 212 10.0 22.0 0.00 0.00 0.00 67 1013.9
20260504174549 77 194 9.0 22.0 0.00 0.00 0.00 69 1013.9
20260504174034 76 213 11.0 20.0 0.00 0.00 0.00 69 1013.9
20260504173534 75 149 7.0 16.0 0.00 0.00 0.00 72 1014.1
20260504173049 75 239 7.0 16.0 0.00 0.00 0.00 72 1014.3
20260504172534 76 186 8.0 19.0 0.00 0.00 0.00 71 1014.4
20260504172033 74 178 10.0 19.0 0.00 0.00 0.00 72 1014.6
20260504171548 74 197 10.0 18.0 0.00 0.00 0.00 72 1014.7
20260504171034 74 203 7.0 15.0 0.00 0.00 0.00 73 1014.6
20260504170534 75 195 8.0 15.0 0.00 0.00 0.00 71 1014.7
20260504151034 70 187 9.0 18.0 0.00 0.00 0.00 81 1015.4
20260504150533 69 174 8.0 17.0 0.00 0.00 0.00 81 1015.5
20260504141036 66 186 7.0 13.0 0.00 0.00 0.00 85 1015.4
20260504140532 65 173 5.0 13.0 0.00 0.00 0.00 87 1015.3
20260504130533 59 0 0.0 2.0 0.00 0.00 0.00 90 1015.3
20260504110533 59 0 0.0 1.0 0.00 0.00 0.00 84 1014.8
20260504100533 61 172 1.0 4.0 0.00 0.00 0.00 83 1014.9
20260504081556 63 160 3.0 8.0 0.00 0.00 0.00 79 1015.8
20260504081035 63 177 4.0 8.0 0.00 0.00 0.00 79 1016.0
20260504080533 63 163 3.0 10.0 0.00 0.00 0.00 79 1016.1
20260504050534 64 137 5.0 14.0 0.00 0.00 0.00 74 1017.6
20260504045533 64 128 5.0 10.0 0.00 0.00 0.00 73 1017.6
20260504045033 64 141 5.0 9.0 0.00 0.00 0.00 72 1017.5
20260504044550 64 137 5.0 8.0 0.00 0.00 0.00 72 1017.5
20260504044033 64 153 5.0 11.0 0.00 0.00 0.00 71 1017.6
20260504043536 65 153 6.0 12.0 0.00 0.00 0.00 71 1017.6
20260504043049 65 159 7.0 12.0 0.00 0.00 0.00 71 1017.6
20260504042534 64 145 7.0 12.0 0.00 0.00 0.00 71 1017.5
20260504042033 64 149 5.0 11.0 0.00 0.00 0.00 70 1017.5
20260504041544 65 166 5.0 11.0 0.00 0.00 0.00 70 1017.6
20260504041033 65 138 5.0 9.0 0.00 0.00 0.00 69 1017.6
20260504040535 65 151 4.0 8.0 0.00 0.00 0.00 67 1017.7
20260504040055 65 134 2.0 6.0 0.00 0.00 0.00 67 1017.7
20260504035533 65 134 3.0 6.0 0.00 0.00 0.00 66 1017.7
20260504035034 65 153 4.0 10.0 0.00 0.00 0.00 66 1017.7
20260504034555 65 153 4.0 10.0 0.00 0.00 0.00 66 1017.7
20260504034037 65 164 4.0 11.0 0.00 0.00 0.00 66 1017.7
20260504033533 65 155 5.0 11.0 0.00 0.00 0.00 66 1017.6
20260504033056 64 155 5.0 9.0 0.00 0.00 0.00 66 1017.6
20260504032537 64 139 4.0 7.0 0.00 0.00 0.00 67 1017.6
20260504032035 64 155 3.0 7.0 0.00 0.00 0.00 67 1017.8
20260504031600 63 164 3.0 8.0 0.00 0.00 0.00 68 1017.6
20260504031033 63 144 3.0 8.0 0.00 0.00 0.00 69 1017.4
20260504030533 63 162 4.0 8.0 0.00 0.00 0.00 70 1017.4
20260504030106 63 157 2.0 6.0 0.00 0.00 0.00 71 1017.4
20260504025533 63 143 2.0 5.0 0.00 0.00 0.00 72 1017.4
20260504025036 63 154 2.0 4.0 0.00 0.00 0.00 74 1017.3
20260504024553 63 162 2.0 4.0 0.00 0.00 0.00 75 1017.4
20260504024033 64 169 2.0 3.0 0.00 0.00 0.00 74 1017.3
20260504023534 64 189 2.0 3.0 0.00 0.00 0.00 74 1017.3
20260504023049 64 189 1.0 2.0 0.00 0.00 0.00 73 1017.2
20260504022535 64 189 0.0 2.0 0.00 0.00 0.00 72 1017.3
20260504022034 65 189 1.0 2.0 0.00 0.00 0.00 72 1017.4
20260504021547 65 189 1.0 2.0 0.00 0.00 0.00 71 1017.4
20260504021033 65 189 0.0 1.0 0.00 0.00 0.00 71 1017.3
20260504020533 66 0 0.0 0.0 0.00 0.00 0.00 70 1017.4
20260504020048 66 0 0.0 1.0 0.00 0.00 0.00 70 1017.4
20260504015533 67 0 0.0 1.0 0.00 0.00 0.00 68 1017.3
20260504015035 67 0 0.0 1.0 0.00 0.00 0.00 67 1017.1
20260504014546 68 0 0.0 2.0 0.00 0.00 0.00 66 1017.0
20260504014033 69 0 0.0 2.0 0.00 0.00 0.00 65 1017.0
20260504013533 69 0 0.0 2.0 0.00 0.00 0.00 63 1017.0
20260504013044 70 189 1.0 2.0 0.00 0.00 0.00 62 1017.0
20260504012533 70 189 1.0 3.0 0.00 0.00 0.00 61 1016.9
20260504012034 71 189 1.0 3.0 0.00 0.00 0.00 58 1016.8
20260504011548 72 189 2.0 3.0 0.00 0.00 0.00 56 1016.8
20260504011037 72 174 1.0 3.0 0.00 0.00 0.00 55 1016.8
20260504010533 72 163 2.0 4.0 0.00 0.00 0.00 51 1016.9
20260504010045 73 163 2.0 4.0 0.00 0.00 0.00 48 1016.8
20260504005535 73 172 2.0 5.0 0.00 0.00 0.00 48 1016.8
20260504005036 73 164 2.0 5.0 0.00 0.00 0.00 47 1016.9
20260504004548 73 180 2.0 5.0 0.00 0.00 0.00 46 1017.0
20260504004033 73 216 2.0 6.0 0.00 0.00 0.00 46 1017.0
20260504003533 73 150 2.0 6.0 0.00 0.00 0.00 46 1017.0
20260504003046 73 135 3.0 6.0 0.00 0.00 0.00 46 1016.9
20260504002533 74 143 3.0 8.0 0.00 0.00 0.00 45 1017.1
20260504002033 74 164 4.0 9.0 0.00 0.00 0.00 45 1017.1
20260504001550 74 149 3.0 9.0 0.00 0.00 0.00 44 1017.1
20260504001033 74 145 5.0 9.0 0.00 0.00 0.00 43 1017.1
20260504000535 75 180 4.0 10.0 0.00 0.00 0.00 44 1017.1
20260504000113 75 147 4.0 10.0 0.00 0.00 0.00 43 1017.0
20260503235534 75 156 4.0 11.0 0.00 0.00 0.00 44 1017.1
20260503235037 75 113 6.0 12.0 0.00 0.00 0.00 42 1017.1
20260503234543 75 147 6.0 12.0 0.00 0.00 0.00 43 1017.1
20260503234035 76 138 6.0 12.0 0.00 0.00 0.00 43 1017.3
20260503233534 76 116 5.0 12.0 0.00 0.00 0.00 44 1017.3
20260503233048 76 116 3.0 14.0 0.00 0.00 0.00 44 1017.5
20260503232533 76 162 8.0 14.0 0.00 0.00 0.00 42 1017.5
20260503232036 76 147 6.0 14.0 0.00 0.00 0.00 43 1017.6
20260503231548 76 132 4.0 14.0 0.00 0.00 0.00 45 1017.6
20260503231036 76 176 6.0 15.0 0.00 0.00 0.00 41 1017.6